www.pogodaiklimat.ru

Погода и климат >> Архив погоды >> Россия >> Якутия >> Крестях


ПОГОДА в Крестяхе

  • Прогноз погоды в Крестяхе
  • Монитор погоды в Крестяхе

АРХИВ ПОГОДЫ в Крестяхе

Время (UTC), дата Ветер
(напр.,м/с)
 
Видим.   Явления Облачность Т
(С)
Тd
(С)
f
(%)
Тe
(С)
Тes
(С)
Комфортность P
(гПа)
Po
(гПа)
Тmin
(С)
Tmax
(С)
R
(мм)
R24
(мм)
S
(см)
15 9.06 С 1 20 км {ливн. осадки} 3/1 600 м
[Sc diur, vesp Ci fib]
+11.7 +11.7 100 +11 +11 1003.0 986.5
18 9.06 штиль 0 20 км {ливн. осадки} 6/1 600 м
[Sc Ci fib]
+8.4 +8.2 99 +7 +7 1003.3 986.6
21 9.06 штиль 0 20 км 6/1 600 м
[Sc Ci fib]
+9.0 +8.6 97 +8 +9 1003.0 986.4
00 10.06 Ю 2 20 км 4/0
[Cc]
+16.7 +13.1 79 +17 +23 1002.4 986.2 +6.8 0.1
03 10.06 Ю 2 20 км 8/3 600 м
[Cu hum Ac trans Ci fib]
+22.6 +13.1 55 +26 +31 жарко 1001.2 985.4
06 10.06 ЮЗ 3 20 км 9/8 600 м
[Cu med, cong Ci fib]
+25.2 +10.6 40 +26 +28 жарко 999.1 983.4
09 10.06 ЮЗ 3 20 км 10/3 600 м
[Cu med, cong Cs]
+25.4 +11.3 41 +27 +29 жарко 997.6 982.0
12 10.06 В 2
{12}
20 км гроза без осадков {ливн. осадки} 10/10 600 м
[Cb cap]
+16.7 +14.6 87 +17 +17 998.2 982.1 +26.5 3
15 10.06 Ю 1 20 км слаб. ливневой дождь {гроза} 10/10 600 м
[Cb cap]
+15.8 +13.7 87 +16 +16 998.8 982.6
18 10.06 штиль 0 20 км {гроза, ливн. осадки} 10/6 600 м
[Sc Cs]
+13.5 +13.3 99 +13 +13 998.2 981.9
21 10.06 Ю 1 20 км туман ясно +11.9 +11.5 97 +12 +13 998.5 982.1
00 11.06 ЮВ 2 20 км {туман} 6/0
[Ci fib]
+17.7 +14.8 83 +18 +24 998.0 981.9 +10.7 3
03 11.06 Ю 2 20 км 10/1 600 м
[Cu hum Ci fib]
+22.9 +14.3 58 +26 +36 жарко 1006.2 980.4
06 11.06 Ю 2 20 км 4/4 600 м
[Cu med, cong]
+25.6 +12.7 45 +27 +35 жарко 994.3 988.7
09 11.06 ЮВ 3 20 км 10/5 600 м
[Cu med, cong Ci fib]
+27.0 +12.4 40 +28 +30 жарко 991.9 976.4
12 11.06 ЮВ 3 20 км 10/10 600 м
[Cu Sc]
+25.8 +13.0 45 +28 +28 жарко 990.5 974.9 +27.5
15 11.06 В 2 20 км 10/10 600 м
[Cb cap]
+22.5 +12.3 52 +25 +25 комфорт 989.0 973.3
18 11.06 ЮВ 1 20 км {ливн. осадки} 10/8 600 м
[Cb cap Ci fib]
+19.5 +12.8 65 +22 +22 комфорт 987.9 972.1
21 11.06 ЮЗ 1 20 км 10/10 600 м
[Sc]
+17.5 +14.4 82 +19 +19 990.3 974.3
00 12.06 З 6
{10}
20 км 10/10 300 м
[St]
+13.4 +8.2 71 +11 +11 995.9 979.6 +13.2 0.0
03 12.06 З 8
{11}
20 км 10/10 300 м
[St]
+11.5 +5.0 64 +8 +8 1000.6 984.1
06 12.06 З 8
{12}
20 км 10/10 600 м
[Sc]
+13.8 +4.2 52 +11 +11 1003.7 987.3
09 12.06 З 6 20 км 6/6 600 м
[Sc]
+14.4 +2.2 44 +13 +14 1006.3 989.8
12 12.06 СЗ 5 20 км 3/3 600 м
[Cu hum]
+14.4 -1.2 34 +13 +13 1008.7 992.2 +15.5
15 12.06 штиль 00 3700 м 5/5 1500 м
[]
+7.1 +5.1 87 +6 +6 1011.0 994.1
18 12.06 штиль 0 20 км ясно +1.0 +0.7 98 -0 -0 1013.2 995.8
21 12.06 ЮВ 1 20 км 3/3 600 м
[Sc]
+2.3 +1.0 91 +1 +1 1014.6 997.3
00 13.06 ЮЗ 1 20 км 9/0
[Ac trans Ci sp]
+9.0 +4.5 73 +9 +14 1014.3 997.4 -0.1
03 13.06 Ю 1 20 км 10/3 600 м
[Cu hum As trans Ci fib]
+13.5 +3.0 49 +14 +19 1014.0 997.4
06 13.06 ЮВ 1 20 км 8/6 600 м
[Cu Sc Ci sp]
+16.7 +5.5 48 +18 +23 1013.2 996.8
09 13.06 Ю 2 20 км 8/8 600 м
[Cu Sc]
+16.2 +2.2 39 +16 +18 1014.1 997.6
12 13.06 В 1 20 км 4/3 600 м
[Cu hum Ci fib]
+16.1 +3.8 44 +17 +17 1013.3 996.9 +17.1
15 13.06 штиль 0 20 км 8/0
[Ac trans Ci fib]
+8.3 +6.1 86 +7 +7 1013.7 996.8
18 13.06 штиль 0 20 км ясно +3.5 +2.8 95 +2 +2 1014.7 997.5
21 13.06 штиль 0 20 км ясно +5.4 +3.5 88 +4 +6 1014.4 997.4
00 14.06 Ю 1 20 км 1/0
[Ci fib]
+12.4 +5.3 62 +13 +20 1013.6 996.9 +1.8
03 14.06 Ю 3 20 км 1/0
[Ci sp]
+18.9 +2.4 33 +19 +30 1011.7 995.4
06 14.06 Ю 3 20 км 3/0
[Ci sp]
+21.9 +5.0 33 +22 +32 комфорт 1009.7 993.6
09 14.06 Ю 3 20 км 4/0
[Ci]
+22.1 +5.9 35 +23 +27 комфорт 1008.3 992.3
12 14.06 Ю 2 20 км 4/0
[Ci]
+22.2 +8.9 43 +24 +24 комфорт 1007.5 991.5 +22.8
15 14.06 штиль 0 20 км 3/0
[Ci fib]
+15.3 +7.2 58 +15 +15 1007.8 991.4
18 14.06 штиль 0 20 км ясно +7.4 +6.3 93 +6 +6 1007.9 991.1
21 14.06 штиль 0 20 км ясно +8.6 +6.2 85 +8 +9 1007.7 990.9
00 15.06 ЮВ 2 20 км ясно +19.0 +10.1 56 +20 +27 1006.6 990.5 +5.4
03 15.06 ЮВ 2 20 км ясно +23.8 +11.8 47 +25 +38 комфорт 1005.3 989.4
06 15.06 Ю 3 20 км ясно +26.6 +15.5 51 +30 +40 душно 1004.2 988.5
09 15.06 В 2 20 км 3/0
[Ci fib]
+27.8 +16.6 51 +31 +36 душно 1003.3 987.7
12 15.06 В 2 20 км 6/0
[Ci fib]
+26.7 +16.0 52 +30 +30 душно 1003.6 987.9 +28.2
15 15.06 штиль 0 20 км 10/3 600 м
[Sc Cs]
+15.1 +11.8 81 +15 +15 1004.2 987.8
18 15.06 штиль 0 20 км 10/3 600 м
[Sc Ci fib]
+10.8 +8.6 86 +10 +10 1004.9 988.3
21 15.06 штиль 0 20 км 10/1 600 м
[Sc Cs]
+11.8 +9.4 85 +11 +12 1005.3 988.7
00 16.06 ЮЗ 1 20 км 10/0
[Ci fib]
+17.4 +10.3 63 +18 +25 1005.7 989.7 +9.2
03 16.06 ЮВ 3 20 км 10/0
[Ci fib]
+26.7 +15.8 51 +30 +38 душно 1005.7 990.0
06 16.06 Ю 3 20 км 8/0
[Ci fib]
+28.7 +18.8 55 +34 +42 очень
душно
1005.8 990.2
09 16.06 В 3 20 км 6/0
[Ci fib]
+29.5 +19.2 54 +35 +39 очень
душно
1005.6 990.0
12 16.06 В 2 20 км 6/0
[Ci fib]
+28.3 +18.0 54 +33 +33 очень
душно
1006.7 991.1 +30.0

 

Местоположение метеостанции Крестях (Якутия, Россия): широта 62.27 долгота 116.10 высота над уровнем моря 139 м.

В архиве по умолчанию представлена погода в Крестяхе за последнюю неделю. Архивные данные за месяц целиком и за предыдущие месяцы, начиная с января 2011 года, Вы можете получить, выбрав интересующий диапазон дат из раскрывающегося списка и нажав кнопку "Ввод!".


*Определитесь, кто Вы:
робот инопланетянин человек

Внимание! Время в таблицах - всемирное. Для получения местного времени необходимо прибавить поправку, которая равна 9 ч.

Смотрите также архив погоды в соседних городах и на ближайших метеорологических станциях:

Погода в Сунтаре (Якутия, Россия) (79 км)
Погода в Дорожном (Якутия, Россия) (107 км)
Погода в Мирном (Якутия, Россия) (122 км)
Погода в Нюрбе (Якутия, Россия) (159 км)
Погода в Ленске (Якутия, Россия) (186 км)
Погода в Чернышевском (Якутия, Россия) (207 км)
Погода в Чумпуруке (Якутия, Россия) (222 км)
Погода в Килиере (Якутия, Россия) (224 км)
Погода в Верхневилюйске (Якутия, Россия) (246 км)
Погода в Туой-Хае (Якутия, Россия) (254 км)

Пояснения к столбцам:

Ветер - указаны скорость ветра в м/с - средняя за 10 мин, порывы в срок и между сроками (в фигурных скобках) и направление, откуда дует ветер: С - северный, СВ - северо-восточный, В - восточный, ЮВ - юго-восточный, Ю - южный, ЮЗ - юго-западный, З - западный, СЗ - северо-западный.
Видимость - горизонтальная дальность видимости в метрах или километрах. При видимости от 1 до 10 км при отсутствии осадков обычно наблюдается дымка, при ухудшении видимости до 1 км и менее - туман. В сухую погоду видимость может ухудшаться дымом, пылью или мглою.
Явления - указаны атмосферные явления, наблюдавшиеся в срок или в последний час перед сроком; фигурными скобками обозначены явления, наблюдавшиеся между сроками (за 1-3 часа до срока); квадратными скобками обозначены град или гололедные отложения с указанием их диаметра в мм.
Облачность - указаны через наклонную черту общая и нижняя облачность в баллах и высота нижней границы облаков в метрах; квадратными скобками обозначены формы облаков: Ci - перистые, Cs - перисто-слоистые, Cc - перисто-кучевые, Ac - высококучевые, As - высокослоистые, Sc - слоисто-кучевые, Ns - слоисто-дождевые, Cu - кучевые, Cb - кучево-дождевые. Подробнее классификацию облаков см. в Атласе облаков (PDF).
T - Температура воздуха - температура, измеренная на высоте 2 м над землей.
Td - Температура точки росы - температура, при понижении до которой содержащийся в воздухе водяной пар достигнет насыщения.
f - Относительная влажность воздуха - влажноcть воздуха, измеренная на высоте 2 м над землей.
Te - Эффективная температура - температура, которую ощущает одетый по сезону человек в тени. Характеристика душности погоды. При расчете учитывается влияние влажности воздуха и скорости ветра на теплоощущения человека.
Tes - Эффективная температура на солнце - температура, которую ощущает человек, с поправкой на солнечный нагрев. Характеристика знойности погоды. Зависит от высоты солнца над горизонтом, облачности и скорости ветра. Ночью, в пасмурную погоду, а также при ветре 12 м/с и более поправка равна нулю.
P - Атмосферное давление - приведенное к уровню моря атмосферное давление.
Po - Атмосферное давление - измеренное на уровне метеостанции атмосферное давление.
Tmin - Минимальная температура - минимум температуры воздуха на высоте 2 м над землей.
Tmax - Максимальная температура - максимум температуры воздуха на высоте 2 м над землей.
R - Количество осадков - Количество выпавших осадков за период времени, мм. При наведении курсора мыши на число - период времени, за который выпало указанное количество осадков.
R24 - Количество осадков - Количество выпавших осадков за 24 часа, мм.
S - Снежный покров - Высота снежного покрова, см. При наведении курсора мыши на число - состояние снежного покрова и степень покрытия местности в баллах.